Home   Weather   Einbeck   Past weeks

Flag for Germany Past Weather in Einbeck, Lower Saxony, Germany — Yesterday and Last 2 Weeks

Now
54 °F

Scattered clouds.


Feels Like: 51 °F
Forecast: 47 / 70 °F
Wind: 8 mph from West

Location: Hannover

Current Time: Aug 21, 2017 at 7:01:14 am

Latest Report: Aug 21, 2017 at 6:20 am


Visibility: N/A

Pressure: 30.18 "Hg

Humidity: 94%

Dew Point: 52 °F

Location of EinbeckLocation

Past Weather in Einbeck — Graph

°F

Einbeck Temperature Yesterday

Maximum temperature yesterday: 66 °F (at 1:50 pm)
Minimum temperature yesterday: 54 °F (at 11:50 pm)
Average temperature yesterday: 58 °F

High & Low Weather Summary for the Past Weeks

 TemperatureHumidityPressure
High82 °F (Aug 15, 5:20 pm)100% (Aug 11, 4:50 am)30.21 "Hg (Aug 11, 4:50 am)
Low50 °F (Aug 7, 4:50 am)36% (Aug 7, 12:50 pm)29.77 "Hg (Aug 8, 5:20 pm)
Average63 °F77%30.04 "Hg
* Reported Aug 6 5:20 am — Aug 21 5:50 am, Einbeck. Weather by CustomWeather, © 2017

Note: Actual official high and low records may vary slightly from our data, if they occured in-between our weather recording intervals... More about our weather records

Advertising

Einbeck Weather History for the Previous 24 Hours

Scroll right to see more
 ConditionsComfort  
Time TempWeatherWind HumidityBarometerVisibility
5:50 am
Mon, Aug 21
54 °FPassing clouds.8 mph94%30.18 "HgN/A
5:20 am54 °FPartly cloudy.8 mph94%30.18 "HgN/A
4:50 am54 °FPartly cloudy.8 mph94%30.18 "HgN/A
4:20 am54 °FPassing clouds.8 mph94%30.18 "HgN/A
3:50 am54 °FPassing clouds.7 mph94%30.18 "HgN/A
3:20 am54 °FPassing clouds.7 mph94%30.18 "HgN/A
2:50 am54 °FClear.7 mph94%30.18 "Hg10 mi
1:50 am54 °FPassing clouds.5 mph94%30.18 "HgN/A
1:20 am54 °FPassing clouds.5 mph94%30.18 "HgN/A
12:50 am54 °FPassing clouds.5 mph94%30.18 "HgN/A
12:20 am54 °FPassing clouds.6 mph94%30.18 "HgN/A
11:50 pm
Sun, Aug 20
54 °FPassing clouds.5 mph100%30.18 "HgN/A
11:20 pm55 °FSprinkles. Passing clouds.3 mph94%30.18 "HgN/A
10:50 pm55 °FSprinkles. Passing clouds.5 mph94%30.18 "HgN/A
10:20 pm55 °FSprinkles. Partly cloudy.7 mph94%30.18 "HgN/A
9:50 pm55 °FSprinkles. Partly cloudy.9 mph94%30.18 "HgN/A
9:20 pm57 °FSprinkles. Passing clouds.7 mph88%30.18 "HgN/A
8:50 pm57 °FSprinkles. Passing clouds.9 mph88%30.18 "HgN/A
8:20 pm57 °FSprinkles. Broken clouds.8 mph88%30.15 "HgN/A
7:50 pm59 °FBroken clouds.7 mph82%30.15 "HgN/A
7:20 pm59 °FPartly sunny.7 mph82%30.15 "HgN/A
7:03 pm59 °FPartly sunny.9 mph82%30.15 "HgN/A
6:50 pm61 °FScattered clouds.12 mph77%30.15 "HgN/A
6:20 pm61 °FScattered clouds.5 mph77%30.15 "HgN/A
5:50 pm61 °FPartly sunny.9 mph77%30.15 "HgN/A
5:20 pm61 °FPartly sunny.9 mph77%30.15 "HgN/A
4:50 pm61 °FPartly sunny.7 mph83%30.15 "HgN/A
4:20 pm59 °FPartly sunny.10 mph88%30.15 "HgN/A
3:50 pm57 °FSprinkles. Scattered clouds.12 mph88%30.15 "Hg6 mi
2:50 pm64 °FScattered showers. Scattered clouds.15 mph60%30.12 "HgN/A
2:20 pm61 °FScattered showers. Scattered clouds.6 mph77%30.12 "HgN/A
1:50 pm66 °FScattered showers. Scattered clouds.13 mph60%30.12 "HgN/A
1:20 pm64 °FScattered clouds.13 mph60%30.12 "HgN/A
12:50 pm64 °FPartly sunny.15 mph64%30.12 "HgN/A
12:20 pm63 °FPartly sunny.14 mph68%30.12 "HgN/A
11:50 am63 °FScattered clouds.13 mph68%30.12 "HgN/A
11:20 am63 °FScattered clouds.14 mph68%30.12 "HgN/A
10:50 am63 °FPassing clouds.14 mph73%30.12 "HgN/A
10:20 am61 °FPassing clouds.14 mph77%30.12 "HgN/A
9:50 am61 °FPassing clouds.14 mph72%30.12 "HgN/A
9:20 am61 °FPassing clouds.12 mph77%30.12 "HgN/A
8:50 am59 °FScattered clouds.10 mph77%30.09 "HgN/A
8:20 am59 °FScattered clouds.12 mph77%30.09 "HgN/A
7:50 am57 °FSprinkles. Clear.10 mph82%30.09 "HgN/A
7:20 am55 °FPassing clouds.8 mph88%30.09 "HgN/A
Weather by CustomWeather, © 2017

See weather overviewHow to use our weather pages